Weather History for KEMP - March, 2014

Change the Weather History Date:

Monday, March 24, 2014

  Actual Average Record
Temperature  
Mean Temperature 31 °F 48 °F  
Max Temperature 39 °F 61 °F 78 °F (1997)
Min Temperature 23 °F 36 °F 20 °F (2013)
Degree Days  
Heating Degree Days 34 17  
Month to date heating degree days 614 501  
Since 1 July heating degree days 4939 4323  
Cooling Degree Days 0 0  
Month to date cooling degree days 0 0  
Year to date cooling degree days 0 0  
Moisture  
Dew Point 26 °F    
Average Humidity 70    
Maximum Humidity 100    
Minimum Humidity 40    
Precipitation  
Precipitation 0.16 in 0.07 in 0.24 in (2009)
Month to date precipitation 0.29 1.99  
Year to date precipitation 0.78 3.85  
Sea Level Pressure  
Sea Level Pressure 30.25 in    
Wind  
Wind Speed 6 mph (NNE)    
Max Wind Speed 15 mph    
Max Gust Speed 18 mph    
Visibility 4 miles    
Events Fog , Snow    
T = Trace of Precipitation, MM = Missing Value Source: NWS Daily Summary

Daily Weather History Graph

Daily Weather History Graph

Search for Another Location

Airport or City:

Trip Planner

Search our weather history database for the weather conditions in past years. The results will help you decide how hot, cold, wet, or windy it might be!

Date:

Astronomy

Mar. 24, 2014 Rise Set
Actual Time 7:22 AM CDT 7:40 PM CDT
Civil Twilight 6:55 AM CDT 8:07 PM CDT
Nautical Twilight 6:24 AM CDT 8:38 PM CDT
Astronomical Twilight 5:53 AM CDT 9:09 PM CDT
Moon 2:48 AM CDT (3/24) 1:11 PM CDT (3/24)
Length of Visible Light 13h 11m
Length of Day
12h 18m
Last Quarter, 43% of the Moon is Illuminated
Mar 24
Last Quarter
Mar 30
New
Apr 7
First Quarter
Apr 15
Full
Apr 22
Last Quarter

Hourly Weather History & Observations

Time (CDT) Temp. Windchill Dew Point Humidity Pressure Visibility Wind Dir Wind Speed Gust Speed Precip Events Conditions
12:53 AM 27.0 °F 21.6 °F 12.9 °F 56% 30.30 in 8.0 mi SSE 4.6 mph - N/A   Clear
1:53 AM 25.0 °F 17.1 °F 15.1 °F 66% 30.30 in 7.0 mi SE 6.9 mph - N/A   Scattered Clouds
2:53 AM 26.1 °F 17.6 °F 16.0 °F 66% 30.27 in 8.0 mi SE 8.1 mph - N/A   Scattered Clouds
3:53 AM 26.1 °F 18.4 °F 14.0 °F 60% 30.27 in 7.0 mi ESE 6.9 mph - N/A   Partly Cloudy
4:53 AM 24.1 °F 17.0 °F 14.0 °F 65% 30.26 in 8.0 mi SE 5.8 mph - N/A   Clear
5:53 AM 24.1 °F 18.2 °F 14.0 °F 65% 30.26 in 9.0 mi East 4.6 mph - N/A   Mostly Cloudy
6:53 AM 25.0 °F 19.3 °F 12.9 °F 60% 30.25 in 10.0 mi East 4.6 mph - N/A   Partly Cloudy
7:53 AM 24.1 °F 19.7 °F 18.0 °F 77% 30.25 in 8.0 mi ESE 3.5 mph - N/A   Partly Cloudy
8:53 AM 28.9 °F 25.2 °F 19.0 °F 67% 30.25 in 7.0 mi East 3.5 mph - N/A   Mostly Cloudy
9:53 AM 34.0 °F 28.8 °F 18.0 °F 52% 30.25 in 8.0 mi East 5.8 mph - N/A   Mostly Cloudy
10:53 AM 36.0 °F 33.3 °F 18.0 °F 48% 30.26 in 7.0 mi NE 3.5 mph - N/A   Overcast
11:53 AM 37.0 °F 31.0 °F 16.0 °F 42% 30.27 in 6.0 mi NNE 8.1 mph - N/A   Haze
12:53 PM 34.0 °F 24.6 °F 24.1 °F 67% 30.27 in 4.0 mi NNE 13.8 mph - N/A   Haze
1:03 PM 32.0 °F 22.5 °F 27.0 °F 82% 30.23 in 1.8 mi NNE 12.7 mph - 0.00 in Snow Light Snow
1:08 PM 32.0 °F 23.6 °F 28.0 °F 85% 30.23 in 1.0 mi NNE 10.4 mph - 0.00 in Snow Light Snow
1:16 PM 30.9 °F 21.2 °F 28.9 °F 92% 30.23 in 0.5 mi NNE 12.7 mph - 0.00 in Fog , Snow Snow
1:32 PM 30.9 °F 22.8 °F 30.0 °F 96% 30.22 in 0.5 mi NE 9.2 mph - 0.00 in Fog , Snow Snow
1:53 PM 30.9 °F 22.8 °F 30.0 °F 96% 30.27 in 0.2 mi NNE 9.2 mph - 0.03 in Fog , Snow Heavy Snow
2:04 PM 30.9 °F 23.5 °F 30.9 °F 100% 30.22 in 0.2 mi NNE 8.1 mph - 0.02 in Fog , Snow Heavy Snow
2:21 PM 30.9 °F 22.2 °F 30.9 °F 100% 30.22 in 0.2 mi NNE 10.4 mph - 0.04 in Fog , Snow Heavy Snow
2:25 PM 30.9 °F 22.2 °F 30.9 °F 100% 30.22 in 0.2 mi NNE 10.4 mph - 0.04 in Fog , Snow Snow
2:34 PM 30.9 °F 24.3 °F 30.9 °F 100% 30.23 in 0.2 mi North 6.9 mph - 0.05 in Fog , Snow Snow
2:53 PM 30.9 °F 25.2 °F 30.9 °F 100% 30.27 in 0.2 mi North 5.8 mph - 0.08 in Fog , Snow Snow
3:53 PM 33.1 °F - 32.0 °F 96% 30.26 in 0.5 mi Calm Calm - 0.04 in Fog , Snow Light Snow
4:21 PM 33.1 °F 28.7 °F 32.0 °F 96% 30.21 in 0.8 mi NW 4.6 mph - 0.01 in Snow Light Snow
4:32 PM 33.1 °F 30.0 °F 32.0 °F 96% 30.21 in 1.0 mi NW 3.5 mph - 0.01 in Snow Light Snow
4:37 PM 33.1 °F 30.0 °F 32.0 °F 96% 30.20 in 1.5 mi WNW 3.5 mph - 0.01 in Snow Light Snow
4:44 PM 33.1 °F 27.7 °F 32.0 °F 96% 30.20 in 3.0 mi NW 5.8 mph - 0.01 in   Overcast
4:53 PM 34.0 °F 28.8 °F 32.0 °F 92% 30.25 in 4.0 mi WNW 5.8 mph - 0.01 in   Overcast
5:00 PM 33.1 °F 28.7 °F 32.0 °F 96% 30.20 in 4.0 mi WNW 4.6 mph - N/A   Overcast
5:37 PM 35.1 °F 31.0 °F 33.1 °F 92% 30.21 in 5.0 mi WNW 4.6 mph - N/A   Overcast
5:53 PM 36.0 °F 33.3 °F 33.1 °F 89% 30.25 in 6.0 mi West 3.5 mph - N/A   Overcast
6:53 PM 37.9 °F 34.4 °F 32.0 °F 79% 30.25 in 9.0 mi NNW 4.6 mph - N/A   Clear
7:53 PM 35.1 °F 31.0 °F 30.0 °F 82% 30.27 in 8.0 mi NNE 4.6 mph - N/A   Clear
8:53 PM 30.0 °F 24.1 °F 28.9 °F 96% 30.27 in 6.0 mi SSE 5.8 mph - N/A   Clear
9:42 PM 28.9 °F 21.9 °F 28.9 °F 100% 30.24 in 1.8 mi South 6.9 mph - N/A   Clear
9:53 PM 28.0 °F 20.8 °F 28.0 °F 100% 30.29 in 1.8 mi South 6.9 mph - N/A   Clear
10:04 PM 28.0 °F 20.0 °F 27.0 °F 96% 30.25 in 1.2 mi SSW 8.1 mph - N/A   Clear
10:14 PM 27.0 °F 20.5 °F 27.0 °F 100% 30.25 in 1.8 mi SSW 5.8 mph - N/A   Clear
10:22 PM 28.0 °F 22.8 °F 27.0 °F 96% 30.25 in 2.5 mi SW 4.6 mph - N/A   Clear
10:53 PM 28.0 °F 21.7 °F 27.0 °F 96% 30.30 in 1.8 mi SW 5.8 mph - N/A   Clear
11:00 PM 27.0 °F 19.5 °F 26.1 °F 96% 30.26 in 2.0 mi SW 6.9 mph - N/A   Clear
11:27 PM 27.0 °F 20.5 °F 25.0 °F 92% 30.26 in 4.0 mi West 5.8 mph - N/A   Clear
11:53 PM 28.9 °F 23.9 °F 26.1 °F 89% 30.30 in 6.0 mi WNW 4.6 mph - N/A   Clear